Regional Weather Roundup
Issued by NWS Newport/Morehead, NC

Current Version | Previous Version | Text Only | Print | Product List | Glossary On
Versions: 1 2 3 4 5 6 7 8 9 10 11 12 13 14 15 16 17 18 19 20 21 22 23 24 25 26 27 28 29 30 31 32 33 34 35 36 37 38 39 40 41 42 43 44 45 46 47 48 49 50
000 ASUS42 KMHX 280013 RWRMHX WEATHER ROUNDUP FOR EASTERN NORTH CAROLINA NATIONAL WEATHER SERVICE NEWPORT/MOREHEAD CITY NC 800 PM EDT WED MAY 27 2015 NOTE: "FAIR" INDICATES FEW OR NO CLOUDS BELOW 12,000 FEET WITH NO SIGNIFICANT WEATHER AND/OR OBSTRUCTIONS TO VISIBILITY NCZ015>017-031-032-045>047-102-103-280100- NORTH COAST CITY SKY/WX TMP DP RH WIND PRES REMARKS EDENTON CLEAR 76 67 75 S15 30.20R ELIZABETH CITY CLEAR 75 65 70 S14 30.20S KITTY HAWK CLEAR 74 63 69 S9G16 30.21R MANTEO CLEAR 74 63 69 S22 30.22S $$ NCZ045>047-081-094-103-104-280100- CENTRAL COAST CITY SKY/WX TMP DP RH WIND PRES REMARKS FRISCO CLEAR 73 60 63 S12 30.24S SWANQUARTER N/A 73 N/A N/A S14G21 30.18S $$ NCZ095-097-098-100-101-280100- SOUTHERN COAST CITY SKY/WX TMP DP RH WIND PRES REMARKS BEAUFORT CLEAR 74 63 68 S12 30.23S CEDAR ISLAND N/A 73 N/A N/A S8G17 30.27S JACKSONVILLE CLOUDY 75 66 73 S8 30.22R PINEY ISLAND CLEAR N/A N/A N/A S8 30.23S WILMINGTON PTCLDY 75 67 76 S8 30.22R $$ NCZ011>013-027>030-043-044-078>080-089-090>093-098-280100- COASTAL PLAIN CITY SKY/WX TMP DP RH WIND PRES REMARKS AHOSKIE MOCLDY 76 68 75 S8 30.18R CLINTON CLOUDY 75 71 87 CALM 30.21S ELIZABETHTOWN CLOUDY 75 69 80 S5 30.21S GOLDSBORO LGT RAIN 77 69 76 S3 30.18R GREENVILLE PTCLDY 77 68 73 S13G18 30.21R HAVELOCK PTCLDY 74 64 71 S8 30.24R KENANSVILLE MOCLDY 76 66 71 S3 30.22S KINSTON MOCLDY 77 68 73 S12 30.21R NEW BERN MOCLDY 76 65 68 S8 30.23S RICHLANDS CLOUDY 75 64 69 S8 30.23R ROCKY MOUNT LGT RAIN 71 68 90 S9 30.19R WASHINGTON PTCLDY 76 66 72 S7 30.21R WHITEVILLE CLOUDY 77 65 67 S5 30.21S $$ AMZ130-135-150-152-154-156-158-170-250-252-270-ANZ085-086-088-633-658-670-280100- MARINE OBSERVATIONS STATION/POSITION TIME TEMP WIND PRES WAVE SWELL AIR SEA DIR/SP/G HT/PER HT/PER (UTC) (F) (DEG/KT/KT) (MB) (FT/S) (FT/S) CHESAPEAKE LIGHT 2300 69 170/ 27/ 28 1021.7 64 E VA BEACH 2350 67 63 180/ 10/ 12 1023.0 3/ 7 2/ 7 DUCK 2300 74 58 170/ 16/ 20 1021.7 2 E DUCK 2311 62 N/A 2/ 6 OREGON INLET 2300 75 78 170/ 14/ 17 1023.6 13E OREGON INLT 2300 71 N/A 3/ 4 HATTERAS CG 2300 75 76 170/ 12/ 15 1023.5 DIAMOND BUOY 2350 74 77 160/ 16/ 19 1023.7 3/ 7 2/ 7 CAPE LOOKOUT 0000 74 170/ 14/ 15 1023.5 BEAUFORT LAB 2300 75 76 170/ 12/ 14 1022.9 27 SE WRIGHTSVLE 2300 76 190/ 10/ 12 N/A 5 SE WRIGHTSVLE 2308 76 77 180/ 14/ 17 1023.1 225 S CAPE HAT 2350 74 75 100/ 12/ 16 1023.9 5/ 8 3/ 8 41 SE CHARLESTON 2350 78 78 120/ 10/ 12 1022.5 3/ 7 2/ 7 $$

USA.gov is the U.S. government's official web portal to all federal, state and local government web resources and services.